Time,TemperatureF,DewpointF,PressureIn,WindDirection,WindDirectionDegrees,WindSpeedMPH,WindSpeedGustMPH,Humidity,HourlyPrecipIn,Conditions,Clouds,dailyrainin,SoftwareType,DateUTC
2013-02-04 00:08:00,20.4,17.0,30.15,West,259,1.0,2.0,88,0.00,,,0.00,weatherlink.com 1.10,2013-02-04 05:08:00,
2013-02-04 00:23:00,20.0,18.0,30.15,SW,225,0.0,2.0,90,0.00,,,0.00,weatherlink.com 1.10,2013-02-04 05:23:00,
2013-02-04 00:38:00,19.9,18.0,30.15,SW,229,0.0,2.0,91,0.00,,,0.00,weatherlink.com 1.10,2013-02-04 05:38:00,
2013-02-04 00:53:00,19.9,18.0,30.15,SSW,212,0.0,1.0,91,0.00,,,0.00,weatherlink.com 1.10,2013-02-04 05:53:00,
2013-02-04 01:08:00,19.8,18.0,30.15,SW,224,0.0,1.0,91,0.00,,,0.00,weatherlink.com 1.10,2013-02-04 06:08:00,
2013-02-04 01:24:00,19.7,18.0,30.15,SW,224,0.0,1.0,91,0.00,,,0.00,weatherlink.com 1.10,2013-02-04 06:24:00,
2013-02-04 01:38:00,19.3,17.0,30.14,SW,224,0.0,0.0,92,0.00,,,0.00,weatherlink.com 1.10,2013-02-04 06:38:00,
2013-02-04 01:53:00,19.3,18.0,30.14,SSW,210,0.0,1.0,93,0.00,,,0.00,weatherlink.com 1.10,2013-02-04 06:53:00,
2013-02-04 02:08:00,19.0,17.0,30.14,SW,214,0.0,0.0,92,0.00,,,0.00,weatherlink.com 1.10,2013-02-04 07:08:00,
2013-02-04 02:23:00,19.1,18.0,30.14,SW,214,0.0,1.0,94,0.00,,,0.00,weatherlink.com 1.10,2013-02-04 07:23:00,
2013-02-04 02:38:00,19.1,18.0,30.14,SW,214,0.0,0.0,94,0.00,,,0.00,weatherlink.com 1.10,2013-02-04 07:38:00,
2013-02-04 02:53:00,19.4,18.0,30.15,SW,214,0.0,0.0,94,0.00,,,0.00,weatherlink.com 1.10,2013-02-04 07:53:00,
2013-02-04 03:08:00,18.3,17.0,30.14,SW,214,0.0,0.0,93,0.00,,,0.00,weatherlink.com 1.10,2013-02-04 08:08:00,
2013-02-04 03:23:00,18.4,17.0,30.13,SE,125,0.0,0.0,94,0.00,,,0.00,weatherlink.com 1.10,2013-02-04 08:23:00,
2013-02-04 03:38:00,18.8,18.0,30.14,SE,143,0.0,0.0,95,0.00,,,0.00,weatherlink.com 1.10,2013-02-04 08:38:00,
2013-02-04 03:53:00,18.8,18.0,30.13,ESE,106,0.0,0.0,95,0.00,,,0.00,weatherlink.com 1.10,2013-02-04 08:53:00,
2013-02-04 04:09:00,18.9,18.0,30.13,ESE,105,0.0,0.0,94,0.00,,,0.00,weatherlink.com 1.10,2013-02-04 09:09:00,
2013-02-04 04:24:00,18.2,17.0,30.13,SW,221,0.0,1.0,94,0.00,,,0.00,weatherlink.com 1.10,2013-02-04 09:24:00,
2013-02-04 04:38:00,18.0,17.0,30.12,SSE,160,0.0,1.0,95,0.00,,,0.00,weatherlink.com 1.10,2013-02-04 09:38:00,
2013-02-04 04:54:00,18.3,17.0,30.12,East,95,0.0,1.0,95,0.00,,,0.00,weatherlink.com 1.10,2013-02-04 09:54:00,
2013-02-04 05:09:00,18.8,18.0,30.11,East,85,0.0,1.0,95,0.00,,,0.00,weatherlink.com 1.10,2013-02-04 10:09:00,
2013-02-04 05:24:00,18.9,18.0,30.12,ESE,115,0.0,1.0,94,0.00,,,0.00,weatherlink.com 1.10,2013-02-04 10:24:00,
2013-02-04 05:39:00,17.9,16.0,30.12,SSW,208,0.0,1.0,93,0.00,,,0.00,weatherlink.com 1.10,2013-02-04 10:39:00,
2013-02-04 05:54:00,17.7,16.0,30.13,SSW,212,1.0,2.0,94,0.00,,,0.00,weatherlink.com 1.10,2013-02-04 10:54:00,
2013-02-04 06:09:00,18.5,17.0,30.12,ESE,110,0.0,2.0,95,0.00,,,0.00,weatherlink.com 1.10,2013-02-04 11:09:00,
2013-02-04 06:24:00,18.5,17.0,30.12,SE,125,0.0,1.0,94,0.00,,,0.00,weatherlink.com 1.10,2013-02-04 11:24:00,
2013-02-04 06:39:00,18.3,17.0,30.11,ESE,108,1.0,2.0,94,0.00,,,0.00,weatherlink.com 1.10,2013-02-04 11:39:00,
2013-02-04 06:54:00,18.5,17.0,30.10,ESE,112,3.0,5.0,94,0.00,,,0.00,weatherlink.com 1.10,2013-02-04 11:54:00,
2013-02-04 07:09:00,18.8,17.0,30.09,ESE,118,2.0,3.0,93,0.00,,,0.00,weatherlink.com 1.10,2013-02-04 12:09:00,
2013-02-04 07:24:00,19.3,17.0,30.08,SE,128,2.0,4.0,92,0.00,,,0.00,weatherlink.com 1.10,2013-02-04 12:24:00,
2013-02-04 07:39:00,19.7,18.0,30.07,SSE,156,2.0,4.0,91,0.00,,,0.00,weatherlink.com 1.10,2013-02-04 12:39:00,
2013-02-04 07:54:00,19.9,18.0,30.07,SE,129,4.0,5.0,90,0.00,,,0.00,weatherlink.com 1.10,2013-02-04 12:54:00,
2013-02-04 08:09:00,20.2,18.0,30.05,SE,136,5.0,8.0,90,0.00,,,0.00,weatherlink.com 1.10,2013-02-04 13:09:00,
2013-02-04 08:24:00,20.8,18.0,30.05,SSE,152,5.0,8.0,89,0.00,,,0.00,weatherlink.com 1.10,2013-02-04 13:24:00,
2013-02-04 08:39:00,21.1,18.0,30.05,SSE,150,5.0,10.0,88,0.00,,,0.00,weatherlink.com 1.10,2013-02-04 13:39:00,
2013-02-04 08:54:00,21.7,19.0,30.04,SSW,193,4.0,9.0,88,0.00,,,0.00,weatherlink.com 1.10,2013-02-04 13:54:00,
2013-02-04 09:09:00,22.4,19.0,30.03,SE,145,6.0,9.0,86,0.00,,,0.00,weatherlink.com 1.10,2013-02-04 14:09:00,
2013-02-04 09:24:00,22.9,19.0,30.02,SSE,153,4.0,10.0,85,0.00,,,0.00,weatherlink.com 1.10,2013-02-04 14:24:00,
2013-02-04 09:39:00,23.5,20.0,30.01,ESE,117,6.0,9.0,85,0.00,,,0.00,weatherlink.com 1.10,2013-02-04 14:39:00,
2013-02-04 09:55:00,24.1,20.0,30.01,ESE,115,7.0,11.0,84,0.00,,,0.00,weatherlink.com 1.10,2013-02-04 14:55:00,
2013-02-04 10:09:00,24.5,20.0,30.01,ESE,105,4.0,9.0,84,0.00,,,0.00,weatherlink.com 1.10,2013-02-04 15:09:00,
2013-02-04 10:24:00,25.1,21.0,30.00,SSE,147,6.0,11.0,84,0.00,,,0.00,weatherlink.com 1.10,2013-02-04 15:24:00,
2013-02-04 10:39:00,26.1,21.0,30.00,SSE,153,6.0,10.0,82,0.00,,,0.00,weatherlink.com 1.10,2013-02-04 15:39:00,
2013-02-04 10:55:00,27.3,22.0,29.99,SE,135,5.0,12.0,80,0.00,,,0.00,weatherlink.com 1.10,2013-02-04 15:55:00,
2013-02-04 11:10:00,28.1,23.0,29.98,ESE,118,7.0,10.0,80,0.00,,,0.00,weatherlink.com 1.10,2013-02-04 16:10:00,
2013-02-04 11:25:00,28.3,23.0,29.97,SSE,152,4.0,14.0,80,0.00,,,0.00,weatherlink.com 1.10,2013-02-04 16:25:00,
2013-02-04 11:40:00,28.6,23.0,29.97,SW,215,3.0,12.0,80,0.00,,,0.00,weatherlink.com 1.10,2013-02-04 16:40:00,
2013-02-04 11:55:00,28.9,23.0,29.96,South,183,5.0,9.0,80,0.00,,,0.00,weatherlink.com 1.10,2013-02-04 16:55:00,
2013-02-04 12:10:00,29.3,24.0,29.96,SSE,166,3.0,6.0,80,0.00,,,0.00,weatherlink.com 1.10,2013-02-04 17:10:00,
2013-02-04 12:25:00,30.2,24.0,29.95,SSW,207,2.0,5.0,79,0.00,,,0.00,weatherlink.com 1.10,2013-02-04 17:25:00,
2013-02-04 12:40:00,31.6,25.0,29.93,SSE,150,4.0,6.0,77,0.00,,,0.00,weatherlink.com 1.10,2013-02-04 17:40:00,
2013-02-04 12:55:00,32.3,26.0,29.93,SSW,195,2.0,6.0,76,0.00,,,0.00,weatherlink.com 1.10,2013-02-04 17:55:00,
2013-02-04 13:10:00,32.6,26.0,29.91,SSE,159,2.0,5.0,75,0.00,,,0.00,weatherlink.com 1.10,2013-02-04 18:10:00,
2013-02-04 13:25:00,32.7,26.0,29.91,SE,129,4.0,6.0,75,0.00,,,0.00,weatherlink.com 1.10,2013-02-04 18:25:00,
2013-02-04 13:40:00,32.9,26.0,29.90,SSW,210,5.0,8.0,75,0.00,,,0.00,weatherlink.com 1.10,2013-02-04 18:40:00,
2013-02-04 13:55:00,33.3,26.0,29.89,SSE,159,3.0,5.0,74,0.00,,,0.00,weatherlink.com 1.10,2013-02-04 18:55:00,
2013-02-04 14:10:00,33.7,26.0,29.90,SW,229,1.0,4.0,74,0.00,,,0.00,weatherlink.com 1.10,2013-02-04 19:10:00,
2013-02-04 14:25:00,33.9,26.0,29.89,SSE,151,3.0,4.0,74,0.00,,,0.00,weatherlink.com 1.10,2013-02-04 19:25:00,
2013-02-04 14:41:00,34.0,27.0,29.90,South,191,3.0,4.0,74,0.00,,,0.00,weatherlink.com 1.10,2013-02-04 19:41:00,
2013-02-04 14:56:00,33.6,28.0,29.90,South,187,1.0,4.0,80,0.00,,,0.00,weatherlink.com 1.10,2013-02-04 19:56:00,
2013-02-04 15:10:00,32.8,29.0,29.90,West,270,0.0,3.0,87,0.00,,,0.00,weatherlink.com 1.10,2013-02-04 20:10:00,
2013-02-04 15:26:00,33.1,30.0,29.90,SW,224,0.0,1.0,88,0.00,,,0.00,weatherlink.com 1.10,2013-02-04 20:26:00,
2013-02-04 15:40:00,33.0,30.0,29.89,SE,145,1.0,2.0,89,0.00,,,0.00,weatherlink.com 1.10,2013-02-04 20:40:00,
2013-02-04 15:55:00,32.7,30.0,29.90,WSW,238,1.0,1.0,90,0.00,,,0.00,weatherlink.com 1.10,2013-02-04 20:55:00,
2013-02-04 16:10:00,32.3,31.0,29.90,SW,214,2.0,2.0,93,0.00,,,0.00,weatherlink.com 1.10,2013-02-04 21:10:00,
2013-02-04 16:26:00,32.3,31.0,29.89,SW,228,0.0,1.0,94,0.00,,,0.00,weatherlink.com 1.10,2013-02-04 21:26:00,
2013-02-04 16:41:00,32.5,31.0,29.89,SSE,166,1.0,2.0,95,0.00,,,0.00,weatherlink.com 1.10,2013-02-04 21:41:00,
2013-02-04 16:55:00,32.6,32.0,29.88,South,189,2.0,3.0,96,0.00,,,0.00,weatherlink.com 1.10,2013-02-04 21:55:00,
2013-02-04 17:10:00,32.8,32.0,29.87,South,183,2.0,4.0,96,0.00,,,0.00,weatherlink.com 1.10,2013-02-04 22:10:00,
2013-02-04 17:25:00,32.8,32.0,29.87,SSE,160,2.0,4.0,96,0.00,,,0.00,weatherlink.com 1.10,2013-02-04 22:25:00,
2013-02-04 17:40:00,32.9,32.0,29.87,SSE,167,2.0,5.0,97,0.00,,,0.00,weatherlink.com 1.10,2013-02-04 22:40:00,
2013-02-04 17:55:00,33.0,32.0,29.88,South,181,5.0,5.0,97,0.00,,,0.00,weatherlink.com 1.10,2013-02-04 22:55:00,
2013-02-04 18:10:00,33.3,33.0,29.87,South,176,3.0,6.0,97,0.00,,,0.00,weatherlink.com 1.10,2013-02-04 23:10:00,
2013-02-04 18:26:00,33.5,33.0,29.87,SSW,198,2.0,4.0,97,0.00,,,0.00,weatherlink.com 1.10,2013-02-04 23:26:00,
2013-02-04 18:41:00,33.5,33.0,29.88,SW,214,1.0,2.0,98,0.00,,,0.00,weatherlink.com 1.10,2013-02-04 23:41:00,
2013-02-04 18:55:00,33.6,33.0,29.88,SW,217,1.0,3.0,98,0.00,,,0.00,weatherlink.com 1.10,2013-02-04 23:55:00,
2013-02-04 19:10:00,33.6,33.0,29.89,SSW,211,1.0,1.0,98,0.00,,,0.00,weatherlink.com 1.10,2013-02-05 00:10:00,
2013-02-04 19:26:00,33.6,33.0,29.89,SW,214,0.0,1.0,98,0.00,,,0.00,weatherlink.com 1.10,2013-02-05 00:26:00,
2013-02-04 19:41:00,33.8,33.0,29.89,SW,214,0.0,1.0,98,0.00,,,0.00,weatherlink.com 1.10,2013-02-05 00:41:00,
2013-02-04 19:56:00,33.8,33.0,29.89,SSW,213,0.0,1.0,98,0.00,,,0.00,weatherlink.com 1.10,2013-02-05 00:56:00,
2013-02-04 20:11:00,33.8,33.0,29.88,SSW,212,0.0,0.0,98,0.00,,,0.00,weatherlink.com 1.10,2013-02-05 01:11:00,
2013-02-04 20:26:00,33.8,33.0,29.89,SSW,212,0.0,1.0,98,0.00,,,0.00,weatherlink.com 1.10,2013-02-05 01:26:00,
2013-02-04 20:41:00,33.9,33.0,29.89,SSW,212,0.0,0.0,98,0.00,,,0.00,weatherlink.com 1.10,2013-02-05 01:41:00,
2013-02-04 20:56:00,34.1,34.0,29.89,SW,228,1.0,1.0,98,0.00,,,0.00,weatherlink.com 1.10,2013-02-05 01:56:00,
2013-02-04 21:11:00,34.3,34.0,29.90,SW,214,1.0,1.0,98,0.00,,,0.00,weatherlink.com 1.10,2013-02-05 02:11:00,
2013-02-04 21:26:00,34.3,34.0,29.90,SW,218,0.0,1.0,98,0.00,,,0.00,weatherlink.com 1.10,2013-02-05 02:26:00,
2013-02-04 21:41:00,34.2,34.0,29.90,SW,218,0.0,1.0,98,0.00,,,0.00,weatherlink.com 1.10,2013-02-05 02:41:00,
2013-02-04 21:56:00,34.3,34.0,29.90,SW,236,0.0,1.0,98,0.00,,,0.00,weatherlink.com 1.10,2013-02-05 02:56:00,
2013-02-04 22:26:00,34.6,34.0,29.91,SW,236,0.0,1.0,98,0.00,,,0.00,weatherlink.com 1.10,2013-02-05 03:26:00,
2013-02-04 22:41:00,34.5,34.0,29.91,SW,236,0.0,0.0,98,0.00,,,0.00,weatherlink.com 1.10,2013-02-05 03:41:00,
2013-02-04 22:56:00,34.8,34.0,29.91,SW,225,1.0,2.0,98,0.00,,,0.00,weatherlink.com 1.10,2013-02-05 03:56:00,
2013-02-04 23:11:00,35.2,35.0,29.91,West,266,0.0,1.0,98,0.00,,,0.00,weatherlink.com 1.10,2013-02-05 04:11:00,
2013-02-04 23:26:00,35.3,35.0,29.90,WSW,250,1.0,3.0,98,0.00,,,0.00,weatherlink.com 1.10,2013-02-05 04:26:00,
2013-02-04 23:41:00,35.3,35.0,29.90,West,267,1.0,2.0,98,0.00,,,0.00,weatherlink.com 1.10,2013-02-05 04:41:00,
2013-02-04 23:56:00,35.3,35.0,29.90,WNW,293,0.0,0.0,98,0.00,,,0.00,weatherlink.com 1.10,2013-02-05 04:56:00,